Regional Weather Roundup
Issued by NWS Glasgow, MT

Home | Current Version | Previous Version | Text Only | Print | Product List | Glossary On
Versions: 1 2 3 4 5 6 7 8 9 10 11 12 13 14 15 16 17 18 19 20 21 22 23 24 25 26 27
000
ASUS45 KGGW 220215
RWRGGW
HOURLY REGIONAL WEATHER ROUNDUP FOR NORTHEAST MONTANA
NATIONAL WEATHER SERVICE GLASGOW MONTANA
700 PM MST WED FEB 21 2018

NOTE: "FAIR" INDICATES FEW OR NO CLOUDS BELOW 12,000 FEET WITH NO
SIGNIFICANT WEATHER AND/OR OBSTRUCTIONS TO VISISBILITY.

NORTHEAST MONTANA


CITY           SKY/WX    TMP DP  RH WIND       PRES   REMARKS
GLASGOW        FAIR      -9 -14  78 E12       30.17S WCI -28
PLENTYWOOD       N/A      4  -2  76 SE8         N/A
WOLF POINT     FAIR      -6 -11  79 E3        30.23R
JORDAN           N/A     -3 -11  68 CALM      30.14R
WINNETT          N/A     -8 -12  83 E2          N/A
SIDNEY         FAIR      -1  -8  72 S9        30.25S
GLENDIVE       FAIR       4  -5  66 S10       30.20F WCI -11
MALTA            N/A    -14 -17  87 E2          N/A

FORT PECK REPORTS


CITY           SKY/WX    TMP DP  RH WIND       PRES   REMARKS
FORT PECK        N/A      2  -5  72 SE9         N/A
THE PINES        N/A      0  -6  76 S3          N/A

SOUTHEAST MONTANA


CITY           SKY/WX    TMP DP  RH WIND       PRES   REMARKS
BILLINGS       MOCLDY    15   1  53 SW9       30.06S
MILES CITY     FAIR      -9 -13  83 NE8       30.16F
BAKER          FAIR      -1  -8  72 SE17      30.18F WCI -22
LIVINGSTON     CLOUDY    21  10  62 NW16      29.97S

CENTRAL MONTANA


CITY           SKY/WX    TMP DP  RH WIND       PRES   REMARKS
HAVRE          FAIR      -9 -15  75 E5        30.08R
LEWISTOWN      FAIR       6  -3  66 SW16      29.98R WCI -12
GREAT FALLS    FAIR       8  -3  61 SW12      29.98R WCI  -7
CUT BANK       FAIR       9   1  70 W23       29.92R WCI -11
HELENA         FAIR       8   0  69 CALM      30.03R
BUTTE          FAIR       8  -2  63 CALM      29.94R
BOZEMAN        FAIR      10   0  63 CALM      30.01S

WESTERN MONTANA


CITY           SKY/WX    TMP DP  RH WIND       PRES   REMARKS
MISSOULA       FAIR      15   5  64 E3        30.09S
KALISPELL      NOT AVBL

NORTH DAKOTA


CITY           SKY/WX    TMP DP  RH WIND       PRES   REMARKS
WILLISTON      FAIR      11  -2  56 S8        30.26R
DICKINSON      FAIR       2  -9  60 S8        30.23S
MINOT          FAIR       5  -2  72 SE7       30.34F
BISMARCK       FAIR       3  -4  72 SE8       30.39S

SOUTHERN SASKATCHEWAN


CITY           SKY/WX    TMP DP  RH WIND       PRES   REMARKS
REGINA         NOT AVBL
ESTEVAN        NOT AVBL
SWIFT CURRENT  NOT AVBL





USA.gov is the U.S. government's official web portal to all federal, state and local government web resources and services.